Weather Roundup
Issued by NWS

Home | Current Version | Previous Version | Graphics & Text | Print | Product List | Glossary Off
Versions: 1 2 3 4 5 6 7 8 9 10 11 12 13 14 15 16 17 18 19 20 21 22 23 24 25 26 27 28 29 30 31 32 33 34 35 36 37 38 39 40 41 42 43 44 45 46 47 48 49 50

000
NZUS93 KARX 310059
HRRWXR

CURRENT HOURLY OBSERVATIONS ACROSS
MUCH OF THE UPPER MISSISSIPPI VALLEY
NATIONAL WEATHER SERVICE LA CROSSE WI
800 PM CDT WED JUL 30 2014


...SOUTHEAST MINNESOTA...


CITY           SKY/WX    TMP DP  RH WIND       PRES   REMARKS
ROCHESTER      CLEAR     71  58  63 W7        30.06S
ROCHESTER/MAYO FAIR      74  56  54 W9        30.05S
WINONA         CLEAR     73  59  60 W3        30.02S
AUSTIN         CLEAR     73  57  56 NW6       30.06S
ALBERT LEA     CLEAR     73  57  56 W5        30.07S
DODGE CENTER   CLEAR     73  57  56 NW7       30.06S
PRESTON        CLEAR     70  66  85 CALM      30.06R
OWATONNA       CLEAR     72  57  60 W5        30.06S
FARIBAULT      CLEAR     75  54  46 W6        30.06S
$$

...ELSEWHERE IN MINNESOTA...


CITY           SKY/WX    TMP DP  RH WIND       PRES   REMARKS
MINNEAPOLIS    CLEAR     77  55  46 W12       30.03S
INTNL FALLS    PTCLDY    71  60  68 W5        29.98S
DULUTH         PTCLDY    72  57  59 NW8       29.98S
RED WING       CLEAR     75  57  53 W6        30.01R
REDWOOD FALLS  CLEAR     74  56  53 NW5       30.07S
MANKATO        CLEAR     73  55  53 W7        30.06F
WORTHINGTON    PTCLDY    73  57  56 CALM      30.12S
FAIRMONT       CLEAR     73  48  40 NW6       30.09S
$$

...SOUTHWEST WISCONSIN...


CITY           SKY/WX    TMP DP  RH WIND       PRES   REMARKS
LA CROSSE      CLEAR     75  60  59 SW3       30.01S
PRAIRIE DU CHI CLEAR     75  56  51 CALM      30.02F
BOSCOBEL       CLEAR     72  61  68 CALM      30.03S
LONE ROCK      NOT AVBL
PLATTEVILLE    CLEAR     71  56  59 NW5       30.05S
FORT MC COY    PTCLDY    71  58  63 CALM      30.03R
VIROQUA        FAIR      69  60  72 W3        30.05R
WIS DELLS      PTCLDY    70  51  51 W3        30.02F
$$

...ELSEWHERE IN WISCONSIN...


CITY           SKY/WX    TMP DP  RH WIND       PRES   REMARKS
MILWAUKEE      PTCLDY    65  51  60 S7        30.00F
MADISON        PTCLDY    70  52  52 NW3       30.01S
GREEN BAY      PTCLDY    67  55  65 W5        29.97S
EAU CLAIRE     LGT RAIN  66  64  93 SE9       30.01R
BLACK RVR FLS  MOCLDY    70  59  68 CALM      30.01S
MEDFORD        PTCLDY    67  58  72 CALM      30.01S
WAUSAU         MOCLDY    69  54  58 W12       29.98S
WIS RAPIDS     PTCLDY    69  55  60 W3        30.01F
MARSHFIELD     PTCLDY    67  58  72 SW5       30.00F
RICE LAKE      CLEAR     66  63  90 CALM      30.02F
$$

...NORTHEAST IOWA...


CITY           SKY/WX    TMP DP  RH WIND       PRES   REMARKS
WATERLOO       CLEAR     74  59  59 W5        30.04S
DUBUQUE        CLEAR     70  61  73 NW3       30.05S
DECORAH        CLEAR     73  61  64 CALM      30.04S
MASON CITY     CLEAR     71  61  70 W5        30.09S
CHARLES CITY   PTCLDY    72  66  83 CALM      30.06S
OELWEIN        CLEAR     73  63  68 W6        30.06S
$$

...ELSEWHERE IN IOWA...


CITY           SKY/WX    TMP DP  RH WIND       PRES   REMARKS
DES MOINES     PTCLDY    77  54  44 N5        30.07R
IOWA CITY      CLEAR     75  60  59 NW6       30.05S
FORT DODGE     CLEAR     72  63  73 CALM      30.10R
MARSHALLTOWN   CLEAR     73  65  75 W3        30.06S
CEDAR RAPIDS   CLEAR     74  62  66 NW3       30.04S
$$

...NORTHERN ILLINOIS...


CITY           SKY/WX    TMP DP  RH WIND       PRES   REMARKS
CHICAGO-OHARE  PTCLDY    70  56  61 E6        30.01R
DUPAGE         PTCLDY    73  57  57 NE6       30.00S
CHICAGO-MIDWAY PTCLDY    70  59  68 E7        30.01S
MOLINE         CLEAR     76  58  53 NW7       30.03S
ROCKFORD       CLEAR     72  53  51 NW6       30.02S
STERLING       CLEAR     72  57  60 N6        30.03S
PEORIA         CLEAR     76  58  53 W5        30.04R
$$

NOTE: "FAIR" INDICATES FEW OR NO CLOUDS BELOW 12,000 FEET WITH NO
SIGNIFICANT WEATHER AND/OR OBSTRUCTIONS TO VISIBILITY. WIND
SPEEDS ARE IN MILES-PER-HOUR.



USA.gov is the U.S. government's official web portal to all federal, state and local government web resources and services.